TimeEDT,TemperatureF,Dew PointF,Humidity,Sea Level PressureIn,VisibilityMPH,Wind Direction,Wind SpeedMPH,Gust SpeedMPH,PrecipitationIn,Events,Conditions,WindDirDegrees,DateUTC
12:53 AM,80.1,73.9,81,30.03,10.0,South,6.9,-,N/A,,Clear,180,2013-06-19 04:53:00
1:53 AM,80.1,75.0,85,30.04,10.0,SW,8.1,-,N/A,,Mostly Cloudy,230,2013-06-19 05:53:00
2:53 AM,78.1,73.0,84,30.04,10.0,WSW,12.7,20.7,N/A,,Clear,240,2013-06-19 06:53:00
3:53 AM,75.9,70.0,82,30.03,10.0,West,5.8,-,N/A,,Scattered Clouds,270,2013-06-19 07:53:00
4:53 AM,75.0,69.1,82,30.01,10.0,Calm,Calm,-,N/A,,Scattered Clouds,0,2013-06-19 08:53:00
5:53 AM,75.0,69.1,82,30.03,10.0,Calm,Calm,-,N/A,,Clear,0,2013-06-19 09:53:00
6:53 AM,73.9,70.0,87,30.03,10.0,South,5.8,-,N/A,,Clear,170,2013-06-19 10:53:00
7:53 AM,79.0,71.1,77,30.04,10.0,SW,3.5,-,N/A,,Clear,230,2013-06-19 11:53:00
8:53 AM,84.0,72.0,67,30.05,10.0,SSW,3.5,-,N/A,,Clear,210,2013-06-19 12:53:00
9:53 AM,88.0,69.1,53,30.05,10.0,South,6.9,-,N/A,,Clear,190,2013-06-19 13:53:00
10:53 AM,91.0,69.1,48,30.05,10.0,WSW,6.9,-,N/A,,Clear,250,2013-06-19 14:53:00
11:53 AM,91.0,71.1,52,30.05,10.0,SW,9.2,-,N/A,,Scattered Clouds,220,2013-06-19 15:53:00
12:53 PM,89.1,75.0,63,30.04,10.0,ESE,12.7,-,N/A,,Mostly Cloudy,120,2013-06-19 16:53:00
1:53 PM,88.0,73.9,63,30.03,10.0,ESE,12.7,-,N/A,,Scattered Clouds,110,2013-06-19 17:53:00
2:53 PM,90.0,75.0,61,30.01,10.0,SE,13.8,-,N/A,,Clear,130,2013-06-19 18:53:00
3:53 PM,90.0,73.9,59,30.00,10.0,SE,16.1,-,N/A,,Clear,130,2013-06-19 19:53:00
4:53 PM,88.0,73.9,63,29.99,10.0,SE,13.8,-,N/A,,Clear,140,2013-06-19 20:53:00
5:53 PM,87.1,75.9,69,29.99,10.0,SE,18.4,23.0,N/A,,Clear,130,2013-06-19 21:53:00
6:53 PM,84.9,73.9,69,30.01,10.0,SE,16.1,-,N/A,,Clear,140,2013-06-19 22:53:00
7:53 PM,84.0,75.9,76,30.05,10.0,South,6.9,-,N/A,,Mostly Cloudy,170,2013-06-19 23:53:00
8:20 PM,78.8,62.6,57,30.05,10.0,NNW,11.5,-,N/A,,Mostly Cloudy,330,2013-06-20 00:20:00
8:53 PM,77.0,66.0,69,30.03,10.0,Calm,Calm,-,N/A,,Clear,0,2013-06-20 00:53:00
9:00 PM,78.8,64.4,61,30.03,10.0,South,4.6,-,N/A,Thunderstorm,Clear,180,2013-06-20 01:00:00
9:15 PM,78.8,64.4,61,30.03,10.0,SSE,4.6,-,N/A,,Clear,160,2013-06-20 01:15:00
9:53 PM,78.1,66.9,68,30.04,10.0,NE,3.5,-,N/A,,Clear,40,2013-06-20 01:53:00
10:53 PM,78.1,68.0,71,30.07,10.0,Calm,Calm,-,N/A,,Clear,0,2013-06-20 02:53:00
11:53 PM,78.1,68.0,71,30.06,10.0,Calm,Calm,-,N/A,,Clear,0,2013-06-20 03:53:00